AirNav   Air Wisconsin Up To $57,000 Bonus
 
 821 users online  

17M Magee Municipal Airport
Magee, Mississippi, USA

GOING TO MAGEE?


FAA INFORMATION EFFECTIVE 07 NOVEMBER 2019

Location

FAA Identifier: 17M
Lat/Long: 31-51-45.9700N 089-48-02.2350W
31-51.766167N 089-48.037250W
31.8627694,-89.8006208
(estimated)
Elevation: 555 ft. / 169.2 m (surveyed)
Variation: 01W (2015)
From city: 3 miles W of MAGEE, MS
Time zone: UTC -6 (UTC -5 during Daylight Saving Time)
Zip code: 39111

Airport Operations

Airport use: Open to the public
Control tower: no
ARTCC: MEMPHIS CENTER
FSS: GREENWOOD FLIGHT SERVICE STATION
NOTAMs facility: GWO (NOTAM-D service available)
Attendance: CONTINUOUS
Wind indicator: lighted
Segmented circle: yes
Lights: ACTVT MIRL RWY 18/36 - CTAF.
Beacon: white-green (lighted land airport)
Operates sunset to sunrise.

Airport Communications

CTAF/UNICOM: 122.8
  • APCH/DEP SVC PRVDD BY MEMPHIS ARTCC ON FREQS 125.975/307.275 (MERIDIAN RCAG).

Nearby radio navigation aids

VOR radial/distance  VOR name  Freq  Var
LBYr313/35.6EATON VORTAC110.6005E
MHZr157/37.5MAGNOLIA VORTAC113.2001W

Airport Services

Fuel available: 100LL
FUEL AVAILABLE 24/7 WITH CREDIT CARD.
Parking: tiedowns
Airframe service: NONE
Powerplant service: NONE
Bottled oxygen: NONE
Bulk oxygen: NONE

Runway Information

Runway 18/36

Dimensions: 3108 x 60 ft. / 947 x 18 m
Surface: asphalt, in fair condition
Weight bearing capacity: 
Single wheel: 19.0
Runway edge lights: medium intensity
RUNWAY 18  RUNWAY 36
Latitude: 31-52.022500N31-51.509833N
Longitude: 089-48.040833W089-48.033667W
Elevation: 553.1 ft.546.1 ft.
Traffic pattern: leftleft
Runway heading: 180 magnetic, 179 true000 magnetic, 359 true
Markings: basic, in fair conditionbasic, in fair condition
Visual slope indicator: 2-light PAPI on left (3.00 degrees glide path)
Touchdown point: yes, no lightsyes, no lights
Obstructions: 50 ft. trees, 1250 ft. from runway, 250 ft. left of centerline, 21:1 slope to clear80 ft. trees, 2500 ft. from runway, 28:1 slope to clear

Airport Ownership and Management from official FAA records

Ownership: Publicly-owned
Owner: CITY OF MAGEE
123 N. MAIN ST.
MAGEE, MS 39111
Phone 601-849-3344
Manager: ASHLEY STEELE
111 PRINE DR.
MAGEE, MS 39111
Phone 601-382-5752

Airport Operational Statistics

Aircraft based on the field: 9
Single engine airplanes: 9
    
Aircraft operations: avg 21/day *
59% transient general aviation
37% local general aviation
4% military
* for 12-month period ending 02 May 2019

Additional Remarks

RY 36 4 FT DEEP DITCH 250 FT FROM THR.
FOR CD CTC MEMPHIS ARTCC AT 901-368-8453.

Instrument Procedures

NOTE: All procedures below are presented as PDF files. If you need a reader for these files, you should download the free Adobe Reader.

NOT FOR NAVIGATION. Please procure official charts for flight.
FAA instrument procedures published for use from 07 November 2019 at 0901Z to 05 December 2019 at 0900Z.

 
IAPs - Instrument Approach Procedures
RNAV (GPS) RWY 18 **CHANGED**   download (172KB)
RNAV (GPS) RWY 36 **CHANGED**   download (172KB)
NOTE: Special Take-Off Minimums/Departure Procedures apply   download

Other nearby airports with instrument procedures:

M43 - Prentiss-Jefferson Davis County Airport (17 nm S)
M11 - Copiah County Airport (29 nm W)
KJAN - Jackson-Medgar Wiley Evers International Airport (30 nm NW)
KPIB - Hattiesburg-Laurel Regional Airport (34 nm SE)
0R0 - Columbia-Marion County Airport (34 nm S)
 
Loc | Ops | Rwys | IFR | FBO | Links
Com | Nav | Svcs | Stats | Notes
Area around 17M (Magee Municipal Airport)
 
Road maps at: MapQuest Bing Google
 
Aerial photo
WARNING: Photo may not be current or correct
Aerial photo of 17M (Magee Municipal Airport)
Photo by Winnfort Myles
Photo taken 17-Oct-2009

Do you have a better or more recent aerial photo of Magee Municipal Airport that you would like to share? If so, please send us your photo.

 
Sectional chart

 
Airport distance calculator
Flying to Magee Municipal Airport? Find the distance to fly.

From to 17M

Sunrise and sunset
Times for 11-Nov-2019
 Local
(UTC-6)
 Zulu
(UTC)
Morning civil twilight06:0012:00
Sunrise06:2512:25
Sunset17:0123:01
Evening civil twilight17:2723:27

Current date and time
Zulu (UTC)  12-Nov-2019 03:28:34
Local (UTC-6)  11-Nov-2019 21:28:34
 
METAR
KJAN 
31nm NW 
120323Z 34017G25KT 10SM OVC007 07/05 A3012 RMK AO2 PK WND 34026/0306 T00720050
KLUL 
34nm SE 
120315Z AUTO 00000KT 10SM OVC050 19/18 A3000 RMK A02 T01880178
K0R0 
34nm S 
120315Z AUTO 00000KT 6SM BR SCT019 BKN027 OVC037 19/18 A3004 RMK AO2
KPIB 
34nm SE 
120256Z AUTO 00000KT 10SM FEW045 OVC060 19/18 A3001 RMK AO2 SLP161 T01890183 50003
K1R7 
35nm SW 
120315Z AUTO 04011G24KT 3SM -RA FEW005 BKN015 OVC031 19/18 A3005 RMK AO2
KHKS 
35nm NW 
120253Z AUTO 33010G20KT 310V010 10SM OVC007 07/06 A3011 RMK AO2 PK WND 32027/0209 RAE21 SLP190 P0000 60026 T00720056 53042
KMBO 
38nm NW 
120315Z AUTO 34011G25KT 10SM OVC008 06/06 A3013 RMK AO2
KJVW 
41nm NW 
120315Z AUTO 34011G20KT 320V020 10SM OVC008 07/07 A3014 RMK AO2
KHBG 
46nm SE 
120253Z AUTO A3000 RMK AO2 SLPNO 50000 PWINO $
TAF
KJAN 
31nm NW 
112359Z 1200/1224 18005KT P6SM -SHRA SCT035 OVC050 FM120130 35015G25KT 5SM RA BR BKN015 OVC035 FM120500 35020G30KT 6SM -RA BR BKN009 OVC015 FM120900 36020G30KT P6SM OVC015 FM121500 36016G26KT P6SM FEW040
KPIB 
34nm SE 
120016Z 1200/1224 18002KT P6SM FEW040 OVC080 FM120500 33012G24KT 5SM SHRA BR BKN009 OVC015 FM121300 35015G25KT P6SM OVC015 FM121800 36014G22KT P6SM FEW040
KHKS 
35nm NW 
112359Z 1200/1224 18005KT P6SM -SHRA SCT035 OVC050 FM120130 35015G25KT 5SM RA BR BKN015 OVC035 FM120500 35020G30KT 6SM -RA BR BKN009 OVC015 FM120900 36020G30KT P6SM OVC015 FM121500 36016G26KT P6SM FEW040
NOTAMs
Click for the latest NOTAMs
NOTAMs are issued by the DoD/FAA and will open in a separate window not controlled by AirNav.

 

 
 

FBO, Fuel Providers, and Aircraft Ground Support

  
 Business Name 
 
 Contact 
 
 Services / Description 
 
Fuel Prices
 
Comments
  
Magee Municipal Airport 601-849-3571
no information available

If you are affiliated with Magee Municipal Airport and would like to show here your services, contact info, web link, logo, and more, click here
100LL
SS $4.75 
 Updated 09-Oct-2017
 
   1 read write
SS=Self service
Update Fuel Prices
 

Would you like to see your business listed on this page?

 If your business provides an interesting product or service to pilots, flight crews, aircraft, or users of the Magee Municipal Airport, you should consider listing it here.  To start the listing process, click on the button below
 
Add a business
 

Other Pages about Magee Municipal Airport

Update a link
 
Copyright © AirNav, LLC. All rights reserved. Privacy Policy  Contact